Tillbaka till svenska Fidonet
English   Information   Debug  
FILM   0/18
FNEWS_PUBLISH   4888
FN_SYSOP   42180
FN_SYSOP_OLD1   71952
FTP_FIDO   0/2
FTSC_PUBLIC   0/13962
FUNNY   0/4886
GENEALOGY.EUR   0/71
GET_INFO   105
GOLDED   0/408
HAM   0/16621
HOLYSMOKE   0/6791
HOT_SITES   0/1
HTMLEDIT   0/71
HUB203   466
HUB_100   264
HUB_400   39
HUMOR   0/29
IC   0/2851
INTERNET   0/424
INTERUSER   0/3
IP_CONNECT   719
JAMNNTPD   0/233
JAMTLAND   0/47
KATTY_KORNER   0/41
LAN   0/16
LINUX-USER   0/19
LINUXHELP   0/1155
LINUX   0/22287
LINUX_BBS   0/957
mail   18.68
mail_fore_ok   249
MENSA   0/341
MODERATOR   0/102
MONTE   0/992
MOSCOW_OKLAHOMA   0/1245
MUFFIN   0/783
MUSIC   0/321
N203_STAT   938
N203_SYSCHAT   313
NET203   321
NET204   69
NET_DEV   0/10
NORD.ADMIN   0/101
NORD.CHAT   0/2572
NORD.FIDONET   189
NORD.HARDWARE   0/28
NORD.KULTUR   0/114
NORD.PROG   0/32
NORD.SOFTWARE   0/88
NORD.TEKNIK   0/58
NORD   0/453
OCCULT_CHAT   0/93
OS2BBS   0/787
OS2DOSBBS   0/580
OS2HW   0/42
OS2INET   0/37
OS2LAN   0/134
OS2PROG   0/36
OS2REXX   0/113
OS2USER-L   207
OS2   0/4829
OSDEBATE   0/18996
PASCAL   0/490
PERL   0/457
PHP   0/45
POINTS   0/405
POLITICS   0/29554
POL_INC   10133/14731
PSION   103
R20_ADMIN   1133
R20_AMATORRADIO   0/2
R20_BEST_OF_FIDONET   16
R20_CHAT   0/896
R20_DEPP   0/3
R20_DEV   400
R20_ECHO2   1797
R20_ECHOPRES   0/35
R20_ESTAT   0/719
R20_FIDONETPROG...
...RAM.MYPOINT
  0/2
R20_FIDONETPROGRAM   0/22
R20_FIDONET   0/248
R20_FILEFIND   0/24
R20_FILEFOUND   0/22
R20_HIFI   0/3
R20_INFO2   3690
R20_INTERNET   0/12940
R20_INTRESSE   0/60
R20_INTR_KOM   0/99
R20_KANDIDAT.CHAT   42
R20_KANDIDAT   28
R20_KOM_DEV   112
R20_KONTROLL   0/13360
R20_KORSET   0/18
R20_LOKALTRAFIK   0/24
R20_MODERATOR   0/1852
R20_NC   76
R20_NET200   245
R20_NETWORK.OTH...
...ERNETS
  0/13
R20_OPERATIVSYS...
...TEM.LINUX
  0/44
R20_PROGRAMVAROR   0/1
R20_REC2NEC   534
R20_SFOSM   0/341
R20_SF   0/108
R20_SPRAK.ENGLISH   0/1
R20_SQUISH   107
R20_TEST   2
R20_WORST_OF_FIDONET   20
RAR   0/9
RA_MULTI   106
RA_UTIL   0/162
REGCON.EUR   0/2068
REGCON   0/13
SCIENCE   0/1206
SF   0/239
SHAREWARE_SUPPORT   0/5146
SHAREWRE   0/14
SIMPSONS   0/169
STATS_OLD1   0/2539.065
STATS_OLD2   0/2530
STATS_OLD3   0/2395.095
STATS_OLD4   0/1692.25
SURVIVOR   0/495
SYSOPS_CORNER   0/3
SYSOP   0/84
TAGLINES   0/112
TEAMOS2   0/4530
TECH   0/2617
TEST.444   0/105
TRAPDOOR   0/19
TREK   0/755
TUB   0/290
UFO   0/40
UNIX   0/1316
USA_EURLINK   0/102
USR_MODEMS   0/1
VATICAN   0/2740
VIETNAM_VETS   0/14
VIRUS   0/378
VIRUS_INFO   0/201
VISUAL_BASIC   0/473
WHITEHOUSE   0/5187
WIN2000   0/101
WIN32   0/30
WIN95   0/4291
WIN95_OLD1   0/70272
WINDOWS   0/1517
WWB_SYSOP   0/419
WWB_TECH   0/810
ZCC-PUBLIC   0/1
ZEC   4

 
4DOS   0/134
ABORTION   0/7
ALASKA_CHAT   0/506
ALLFIX_FILE   0/1313
ALLFIX_FILE_OLD1   0/7997
ALT_DOS   0/152
AMATEUR_RADIO   0/1039
AMIGASALE   0/14
AMIGA   0/331
AMIGA_INT   0/1
AMIGA_PROG   0/20
AMIGA_SYSOP   0/26
ANIME   0/15
ARGUS   0/924
ASCII_ART   0/340
ASIAN_LINK   0/651
ASTRONOMY   0/417
AUDIO   0/92
AUTOMOBILE_RACING   0/105
BABYLON5   0/17862
BAG   135
BATPOWER   0/361
BBBS.ENGLISH   0/382
BBSLAW   0/109
BBS_ADS   0/5290
BBS_INTERNET   0/507
BIBLE   0/3563
BINKD   0/1119
BINKLEY   0/215
BLUEWAVE   0/2173
CABLE_MODEMS   0/25
CBM   0/46
CDRECORD   0/66
CDROM   0/20
CLASSIC_COMPUTER   0/378
COMICS   0/15
CONSPRCY   0/899
COOKING   41119
COOKING_OLD1   0/24719
COOKING_OLD2   0/40862
COOKING_OLD3   0/37489
COOKING_OLD4   0/35496
COOKING_OLD5   9370
C_ECHO   0/189
C_PLUSPLUS   0/31
DIRTY_DOZEN   0/201
DOORGAMES   0/2253
DOS_INTERNET   0/196
duplikat   6102
ECHOLIST   0/18295
EC_SUPPORT   0/318
ELECTRONICS   0/359
ELEKTRONIK.GER   1534
ENET.LINGUISTIC   0/13
ENET.POLITICS   0/4
ENET.SOFT   0/11701
ENET.SYSOP   34273
ENET.TALKS   0/32
ENGLISH_TUTOR   0/2000
EVOLUTION   0/1335
FDECHO   0/217
FDN_ANNOUNCE   0/7068
FIDONEWS   24997
FIDONEWS_OLD1   0/49742
FIDONEWS_OLD2   0/35949
FIDONEWS_OLD3   0/30874
FIDONEWS_OLD4   0/37224
FIDO_SYSOP   12921
FIDO_UTIL   0/180
FILEFIND   0/209
FILEGATE   0/212
Möte HAM, 16621 texter
 lista första sista föregående nästa
Text 1096, 767 rader
Skriven 2006-07-07 01:00:57 av Amsat List (1:323/120.0)
Ärende: [keps] orb06187.amsa
============================
[keps] orb06187.amsa


SB KEPS @ AMSAT  $ORB06187.O
Orbital Elements  06187.OSCAR

HR AMSAT ORBITAL ELEMENTS FOR OSCAR SATELLITES
FROM WA5QGD FORT WORTH,TX July 6, 2006
Send SUBSCRIBE KEPS/UNSUBSCRIBE KEPS to majordomo@amsat.org only
BID: ORB06187.O
TO ALL RADIO AMATEURS BT

Satellite: AO-07
Catalog number: 07530
Epoch time:      06187.73912510
Element set:     622
Inclination:      101.5655 deg
RA of node:       230.1802 deg
Eccentricity:    0.0011837
Arg of perigee:   207.5206 deg
Mean anomaly:     152.5235 deg
Mean motion:   12.53571622 rev/day
Decay rate:       -2.8e-07 rev/day^2
Epoch rev:           44783
Checksum:              268

Satellite: AO-10
Catalog number: 14129
Epoch time:      06183.34467051
Element set:    0295
Inclination:      027.4027 deg
RA of node:       327.3973 deg
Eccentricity:    0.6032842
Arg of perigee:   297.9393 deg
Mean anomaly:     014.3420 deg
Mean motion:   02.05864998 rev/day
Decay rate:      -3.00e-06 rev/day^2
Epoch rev:           17336
Checksum:              304

Satellite: UO-11
Catalog number: 14781
Epoch time:      06186.58056580
Element set:    0117
Inclination:      098.2053 deg
RA of node:       197.1867 deg
Eccentricity:    0.0008484
Arg of perigee:   200.5925 deg
Mean anomaly:     159.4943 deg
Mean motion:   14.79437309 rev/day
Decay rate:      -2.26e-06 rev/day^2
Epoch rev:           19848
Checksum:              336

Satellite: RS-10/11
Catalog number: 18129
Epoch time:      06187.79128333
Element set:      33
Inclination:      082.9255 deg
RA of node:       313.6556 deg
Eccentricity:    0.0013167
Arg of perigee:   043.3263 deg
Mean anomaly:     316.8927 deg
Mean motion:   13.72776287 rev/day
Decay rate:        4.0e-07 rev/day^2
Epoch rev:           95384
Checksum:              317

Satellite: RS-15
Catalog number: 23439
Epoch time:      06186.55261041
Element set:    0968
Inclination:      064.8146 deg
RA of node:       207.5215 deg
Eccentricity:    0.0167556
Arg of perigee:   250.8217 deg
Mean anomaly:     107.4506 deg
Mean motion:   11.27552380 rev/day
Decay rate:       -3.9e-07 rev/day^2
Epoch rev:           47461
Checksum:              304

Satellite: FO-29
Catalog number: 24278
Epoch time:      06186.58420488
Element set:    0266
Inclination:      098.5084 deg
RA of node:       188.5669 deg
Eccentricity:    0.0349735
Arg of perigee:   262.0696 deg
Mean anomaly:     094.0626 deg
Mean motion:   13.52921899 rev/day
Decay rate:       -1.9e-07 rev/day^2
Epoch rev:           48803
Checksum:              368

Satellite: SO-33
Catalog number: 25509
Epoch time:      06187.87686099
Element set:     691
Inclination:      031.4356 deg
RA of node:       017.9851 deg
Eccentricity:    0.0355252
Arg of perigee:   288.6448 deg
Mean anomaly:     067.5924 deg
Mean motion:   14.28112775 rev/day
Decay rate:       4.42e-06 rev/day^2
Epoch rev:           40185
Checksum:              342

Satellite: AO-40
Catalog number: 26609
Epoch time:      06185.79355490
Element set:    0748
Inclination:      006.4554 deg
RA of node:       233.2150 deg
Eccentricity:    0.7952218
Arg of perigee:   177.1632 deg
Mean anomaly:     195.1589 deg
Mean motion:   01.25586646 rev/day
Decay rate:       -6.5e-07 rev/day^2
Epoch rev:           02607
Checksum:              328

Satellite: VO-52
Catalog number: 28650
Epoch time:      06187.64531815
Element set:     370
Inclination:      097.8695 deg
RA of node:       260.3340 deg
Eccentricity:    0.0026269
Arg of perigee:   299.6780 deg
Mean anomaly:     060.1823 deg
Mean motion:   14.81140676 rev/day
Decay rate:       5.05e-06 rev/day^2
Epoch rev:            6326
Checksum:              316

/EX
SB KEPS @ AMSAT  $ORB06187.D
Orbital Elements  06187.MICROS

HR AMSAT ORBITAL ELEMENTS FOR THE MICROSATS
FROM WA5QGD FORT WORTH,TX July 6, 2006
Send SUBSCRIBE KEPS/UNSUBSCRIBE KEPS to majordomo@amsat.org only
BID: ORB06187.D
TO ALL RADIO AMATEURS BT

Satellite: AO-16
Catalog number: 20439
Epoch time:      06186.66933846
Element set:     787
Inclination:      098.1853 deg
RA of node:       195.5722 deg
Eccentricity:    0.0011507
Arg of perigee:   135.1897 deg
Mean anomaly:     225.0214 deg
Mean motion:   14.31726093 rev/day
Decay rate:       -1.1e-07 rev/day^2
Epoch rev:           85896
Checksum:              328

Satellite: WO-18
Catalog number: 20441
Epoch time:      06187.56331240
Element set:     987
Inclination:      098.1855 deg
RA of node:       201.0363 deg
Eccentricity:    0.0012241
Arg of perigee:   133.3680 deg
Mean anomaly:     226.8533 deg
Mean motion:   14.31796488 rev/day
Decay rate:       -4.0e-08 rev/day^2
Epoch rev:           85915
Checksum:              300

Satellite: LO-19
Catalog number: 20442
Epoch time:      06186.90597000
Element set:    0727
Inclination:      098.1879 deg
RA of node:       205.2798 deg
Eccentricity:    0.0012564
Arg of perigee:   134.7075 deg
Mean anomaly:     225.5136 deg
Mean motion:   14.31969318 rev/day
Decay rate:        4.0e-08 rev/day^2
Epoch rev:           85913
Checksum:              320

Satellite: UO-22
Catalog number: 21575
Epoch time:      06186.88602438
Element set:     741
Inclination:      098.2959 deg
RA of node:       144.0038 deg
Eccentricity:    0.0007876
Arg of perigee:   021.8738 deg
Mean anomaly:     338.2767 deg
Mean motion:   14.39554482 rev/day
Decay rate:        3.6e-07 rev/day^2
Epoch rev:           78570
Checksum:              343

Satellite: KO-23
Catalog number: 22077
Epoch time:      06186.72087613
Element set:    0836
Inclination:      066.0853 deg
RA of node:       063.2340 deg
Eccentricity:    0.0001927
Arg of perigee:   358.6694 deg
Mean anomaly:     001.4319 deg
Mean motion:   12.86437075 rev/day
Decay rate:       -3.7e-07 rev/day^2
Epoch rev:           65292
Checksum:              308

